Simultaneous Nadir Overpasses (SNOs) Predictions

Prediction of SNOs between LANDSAT-8 and METOP-B Satellite Orbit:

Table of predicted SNOs for the next 14.0 days since TLE Epoch: 5/28/2016
Index Date (LANDSAT-8) Time (LANDSAT-8) Lat,Lon (LANDSAT-8) SZA (LANDSAT-8 ) Date (METOP-B) Time (METOP-B) Lat,Lon (METOP-B) SZA (METOP-B ) Distance(km) Time Diff (sec)
1 05/29/2016 22:21:02 81.09,-115.72 61.50 05/29/2016 22:20:41 81.09,-115.71 61.49 0.54 21
2 05/29/2016 23:10:28 -81.11, 52.24 118.46 05/29/2016 23:11:20 -81.11, 52.34 118.43 1.75 52
3 06/01/2016 17:55:18 81.10, -49.26 61.11 06/01/2016 17:55:04 81.09, -49.17 61.11 1.53 14
4 06/01/2016 18:44:44 -81.12, 118.72 118.85 06/01/2016 18:45:43 -81.12, 118.88 118.81 2.71 59
5 06/04/2016 13:29:33 81.09, 17.17 60.76 06/04/2016 13:29:26 81.10, 17.35 60.77 3.14 7
6 06/04/2016 14:18:59 -81.12,-174.83 119.20 06/04/2016 14:20:06 -81.11,-174.98 119.19 2.74 67
7 06/07/2016 08:14:24 -81.07, -84.45 119.61 06/07/2016 08:13:11 -81.06, -84.49 119.64 0.67 73
8 06/07/2016 09:03:49 81.09, 83.56 60.45 06/07/2016 09:03:50 81.09, 83.47 60.44 1.60 1
9 06/07/2016 09:53:15 -81.12,-108.41 119.50 06/07/2016 09:54:29 -81.11,-108.48 119.48 1.22 74
10 06/10/2016 03:48:40 -81.06, -18.07 119.86 06/10/2016 03:47:34 -81.07, -18.01 119.88 1.14 66




NCC Satellite Simultaneous Nadir Overpasses (SNOs) Prediction Service
